| time (UTC) | temp F | wind direction | speed MPH | gust MPH | rain 1hr in | rain 24hr in | rain mn in | humidity % | barometer mb |
| 20260906115504 | 77 | 241 | 1.0 | 3.0 | 0.00 | 0.01 | 0.01 | 92 | 1011.3 |
| 20260906115004 | 77 | 239 | 2.0 | 3.0 | 0.00 | 0.01 | 0.01 | 92 | 1011.2 |
| 20260906114504 | 77 | 243 | 1.0 | 3.0 | 0.00 | 0.01 | 0.01 | 93 | 1011.1 |
| 20260906114004 | 77 | 242 | 1.0 | 3.0 | 0.01 | 0.01 | 0.01 | 93 | 1011.1 |
| 20260906113504 | 77 | 247 | 2.0 | 3.0 | 0.01 | 0.01 | 0.01 | 93 | 1011.1 |
| 20260906113004 | 77 | 231 | 1.0 | 3.0 | 0.01 | 0.01 | 0.01 | 93 | 1010.9 |
| 20260906112504 | 77 | 270 | 1.0 | 2.0 | 0.01 | 0.01 | 0.01 | 93 | 1010.9 |
| 20260906112004 | 77 | 231 | 0.0 | 3.0 | 0.01 | 0.01 | 0.01 | 93 | 1010.8 |
| 20260906111004 | 77 | 242 | 1.0 | 2.0 | 0.01 | 0.01 | 0.01 | 93 | 1010.6 |
| 20260906110504 | 77 | 310 | 1.0 | 2.0 | 0.01 | 0.01 | 0.01 | 93 | 1010.6 |
| 20260906110004 | 77 | 255 | 0.0 | 2.0 | 0.01 | 0.01 | 0.01 | 93 | 1010.6 |
| 20260906105003 | 77 | 234 | 0.0 | 2.0 | 0.01 | 0.01 | 0.01 | 93 | 1010.5 |
| 20260906104504 | 77 | 234 | 0.0 | 2.0 | 0.01 | 0.01 | 0.01 | 93 | 1010.4 |
| 20260906104004 | 77 | 252 | 1.0 | 3.0 | 0.00 | 0.00 | 0.00 | 93 | 1010.4 |
| 20260906103504 | 77 | 252 | 1.0 | 3.0 | 0.00 | 0.00 | 0.00 | 93 | 1010.4 |
| 20260906103004 | 77 | 235 | 1.0 | 3.0 | 0.00 | 0.00 | 0.00 | 93 | 1010.3 |
| 20260906102504 | 77 | 241 | 1.0 | 3.0 | 0.00 | 0.00 | 0.00 | 93 | 1010.3 |
| 20260906101504 | 77 | 247 | 0.0 | 3.0 | 0.00 | 0.00 | 0.00 | 93 | 1010.2 |
| 20260906101004 | 77 | 247 | 2.0 | 3.0 | 0.00 | 0.00 | 0.00 | 93 | 1010.3 |
| 20260906100505 | 77 | 246 | 1.0 | 3.0 | 0.00 | 0.00 | 0.00 | 93 | 1010.2 |
| 20260906100003 | 77 | 229 | 0.0 | 0.0 | 0.00 | 0.00 | 0.00 | 93 | 1010.2 |
| 20260906095504 | 77 | 229 | 0.0 | 0.0 | 0.00 | 0.00 | 0.00 | 93 | 1010.3 |
| 20260906095004 | 77 | 229 | 0.0 | 0.0 | 0.00 | 0.00 | 0.00 | 92 | 1010.3 |
| 20260906094504 | 77 | 229 | 0.0 | 0.0 | 0.00 | 0.00 | 0.00 | 92 | 1010.3 |
| 20260906092503 | 77 | 229 | 0.0 | 0.0 | 0.00 | 0.00 | 0.00 | 92 | 1010.2 |
| 20260906092004 | 77 | 229 | 0.0 | 0.0 | 0.00 | 0.00 | 0.00 | 92 | 1010.1 |
| 20260906091504 | 77 | 229 | 0.0 | 0.0 | 0.00 | 0.00 | 0.00 | 92 | 1010.1 |
| 20260906091004 | 77 | 229 | 0.0 | 0.0 | 0.00 | 0.00 | 0.00 | 92 | 1010.1 |
| 20260906090504 | 77 | 229 | 0.0 | 0.0 | 0.00 | 0.00 | 0.00 | 92 | 1010.1 |
| 20260906090004 | 77 | 229 | 0.0 | 0.0 | 0.00 | 0.00 | 0.00 | 92 | 1010.1 |
| 20260906085504 | 77 | 229 | 0.0 | 0.0 | 0.00 | 0.00 | 0.00 | 92 | 1010.0 |
| 20260906084004 | 77 | 229 | 0.0 | 0.0 | 0.00 | 0.00 | 0.00 | 92 | 1010.0 |
| 20260906083003 | 77 | 229 | 0.0 | 0.0 | 0.00 | 0.00 | 0.00 | 92 | 1009.9 |
| 20260906082503 | 77 | 229 | 0.0 | 0.0 | 0.00 | 0.00 | 0.00 | 92 | 1009.9 |
| 20260906081504 | 77 | 229 | 0.0 | 0.0 | 0.00 | 0.00 | 0.00 | 92 | 1009.8 |
| 20260906080504 | 77 | 229 | 0.0 | 0.0 | 0.00 | 0.00 | 0.00 | 92 | 1009.8 |
| 20260906080004 | 77 | 229 | 0.0 | 0.0 | 0.00 | 0.00 | 0.00 | 92 | 1009.8 |
| 20260906075504 | 77 | 229 | 0.0 | 0.0 | 0.00 | 0.00 | 0.00 | 92 | 1009.8 |
| 20260906075004 | 78 | 229 | 0.0 | 0.0 | 0.00 | 0.00 | 0.00 | 92 | 1009.8 |
| 20260906074004 | 78 | 229 | 0.0 | 0.0 | 0.00 | 0.00 | 0.00 | 92 | 1009.9 |
| 20260906073503 | 78 | 229 | 0.0 | 0.0 | 0.00 | 0.00 | 0.00 | 92 | 1010.0 |
| 20260906072504 | 78 | 229 | 0.0 | 0.0 | 0.00 | 0.00 | 0.00 | 92 | 1009.9 |
| 20260906072004 | 78 | 229 | 0.0 | 0.0 | 0.00 | 0.00 | 0.00 | 92 | 1009.9 |
| 20260906071504 | 78 | 229 | 0.0 | 0.0 | 0.00 | 0.00 | 0.00 | 92 | 1009.9 |
| 20260906071004 | 78 | 229 | 0.0 | 0.0 | 0.00 | 0.00 | 0.00 | 92 | 1009.9 |
| 20260906070504 | 78 | 229 | 0.0 | 1.0 | 0.00 | 0.00 | 0.00 | 92 | 1009.9 |
| 20260906070004 | 78 | 229 | 0.0 | 2.0 | 0.00 | 0.00 | 0.00 | 92 | 1010.0 |
| 20260906065503 | 78 | 229 | 0.0 | 2.0 | 0.00 | 0.00 | 0.00 | 92 | 1009.9 |
| 20260906065004 | 78 | 208 | 1.0 | 2.0 | 0.00 | 0.00 | 0.00 | 92 | 1009.8 |
| 20260906064503 | 78 | 224 | 1.0 | 2.0 | 0.00 | 0.00 | 0.00 | 92 | 1009.8 |
| 20260906064004 | 78 | 270 | 1.0 | 2.0 | 0.00 | 0.00 | 0.00 | 91 | 1009.9 |
| 20260906063504 | 78 | 208 | 0.0 | 3.0 | 0.00 | 0.00 | 0.00 | 91 | 1009.9 |
| 20260906061504 | 79 | 233 | 1.0 | 3.0 | 0.00 | 0.00 | 0.00 | 91 | 1010.1 |
| 20260906061004 | 79 | 244 | 1.0 | 3.0 | 0.00 | 0.00 | 0.00 | 91 | 1010.2 |
| 20260906060503 | 79 | 249 | 0.0 | 3.0 | 0.00 | 0.00 | 0.00 | 91 | 1010.2 |
| 20260906060004 | 79 | 254 | 2.0 | 3.0 | 0.00 | 0.00 | 0.00 | 91 | 1010.3 |
| 20260906055004 | 79 | 226 | 1.0 | 3.0 | 0.00 | 0.00 | 0.00 | 91 | 1010.4 |
| 20260906054003 | 79 | 302 | 0.0 | 0.0 | 0.00 | 0.00 | 0.00 | 91 | 1010.5 |
| 20260906053503 | 79 | 306 | 0.0 | 0.0 | 0.00 | 0.00 | 0.00 | 91 | 1010.6 |
| 20260906053004 | 79 | 242 | 0.0 | 1.0 | 0.00 | 0.00 | 0.00 | 91 | 1010.4 |
| 20260906052504 | 79 | 212 | 0.0 | 2.0 | 0.00 | 0.00 | 0.00 | 91 | 1010.4 |
| 20260906052003 | 79 | 207 | 0.0 | 2.0 | 0.00 | 0.00 | 0.00 | 91 | 1010.4 |
| 20260906051504 | 79 | 174 | 1.0 | 3.0 | 0.00 | 0.00 | 0.00 | 91 | 1010.4 |
| 20260906050503 | 79 | 193 | 1.0 | 3.0 | 0.00 | 0.00 | 0.00 | 91 | 1010.5 |
| 20260906050003 | 79 | 191 | 1.0 | 3.0 | 0.00 | 0.00 | 0.00 | 91 | 1010.6 |
| 20260906045504 | 79 | 217 | 2.0 | 3.0 | 0.00 | 0.00 | 0.00 | 91 | 1010.6 |
| 20260906045003 | 79 | 187 | 2.0 | 3.0 | 0.00 | 0.00 | 0.00 | 91 | 1010.6 |
| 20260906044504 | 79 | 217 | 1.0 | 3.0 | 0.00 | 0.00 | 0.00 | 91 | 1010.6 |
| 20260906044004 | 79 | 210 | 1.0 | 3.0 | 0.00 | 0.00 | 0.00 | 91 | 1010.7 |
| 20260906043503 | 80 | 213 | 1.0 | 3.0 | 0.00 | 0.00 | 0.00 | 91 | 1010.8 |
| 20260906043004 | 80 | 221 | 1.0 | 2.0 | 0.00 | 0.00 | 0.00 | 91 | 1010.9 |
| 20260906042503 | 80 | 209 | 0.0 | 0.0 | 0.00 | 0.00 | 0.00 | 91 | 1010.9 |
| 20260906042004 | 80 | 203 | 0.0 | 0.0 | 0.00 | 0.00 | 0.00 | 91 | 1011.0 |
| 20260906041504 | 80 | 203 | 0.0 | 3.0 | 0.00 | 0.00 | 0.00 | 91 | 1011.0 |
| 20260906041003 | 80 | 203 | 0.0 | 3.0 | 0.00 | 0.00 | 0.00 | 91 | 1011.0 |
| 20260906040505 | 80 | 203 | 0.0 | 2.0 | 0.00 | 0.00 | 0.00 | 91 | 1011.0 |
| 20260906040005 | 80 | 230 | 0.0 | 2.0 | 0.00 | 0.00 | 0.00 | 91 | 1011.0 |
| 20260906035504 | 80 | 239 | 1.0 | 2.0 | 0.00 | 0.00 | 0.00 | 91 | 1011.1 |
| 20260906035004 | 80 | 221 | 0.0 | 2.0 | 0.00 | 0.00 | 0.00 | 91 | 1011.1 |
| 20260906033004 | 81 | 217 | 1.0 | 2.0 | 0.00 | 0.00 | 0.00 | 91 | 1011.3 |
| 20260906032504 | 81 | 242 | 0.0 | 2.0 | 0.00 | 0.00 | 0.00 | 91 | 1011.3 |
| 20260906031504 | 81 | 225 | 0.0 | 2.0 | 0.00 | 0.00 | 0.00 | 91 | 1011.5 |
| 20260906031004 | 81 | 225 | 0.0 | 3.0 | 0.00 | 0.00 | 0.00 | 91 | 1011.5 |
| 20260906030504 | 81 | 223 | 0.0 | 3.0 | 0.00 | 0.00 | 0.00 | 91 | 1011.4 |
| 20260906030004 | 81 | 208 | 1.0 | 3.0 | 0.00 | 0.00 | 0.00 | 91 | 1011.3 |
| 20260906025504 | 81 | 227 | 1.0 | 3.0 | 0.00 | 0.00 | 0.00 | 91 | 1011.3 |
| 20260906025003 | 81 | 224 | 2.0 | 5.0 | 0.00 | 0.00 | 0.00 | 91 | 1011.3 |
| 20260906024503 | 81 | 218 | 2.0 | 5.0 | 0.00 | 0.00 | 0.00 | 91 | 1011.2 |
| 20260906024004 | 81 | 184 | 1.0 | 3.0 | 0.00 | 0.00 | 0.00 | 91 | 1011.5 |
| 20260906023503 | 81 | 213 | 1.0 | 3.0 | 0.00 | 0.00 | 0.00 | 91 | 1011.5 |
| 20260906023004 | 81 | 212 | 0.0 | 2.0 | 0.00 | 0.00 | 0.00 | 91 | 1011.4 |
| 20260906022504 | 81 | 220 | 0.0 | 2.0 | 0.00 | 0.00 | 0.00 | 91 | 1011.4 |
| 20260906022004 | 81 | 220 | 0.0 | 0.0 | 0.00 | 0.00 | 0.00 | 90 | 1011.4 |
| 20260906021503 | 81 | 220 | 0.0 | 2.0 | 0.00 | 0.00 | 0.00 | 90 | 1011.3 |
| 20260906021004 | 81 | 220 | 0.0 | 2.0 | 0.00 | 0.00 | 0.00 | 90 | 1011.2 |
| 20260906020504 | 81 | 203 | 1.0 | 3.0 | 0.00 | 0.00 | 0.00 | 90 | 1011.1 |
| 20260906020004 | 81 | 146 | 0.0 | 3.0 | 0.00 | 0.00 | 0.00 | 90 | 1010.9 |
| 20260906015004 | 81 | 206 | 1.0 | 3.0 | 0.00 | 0.00 | 0.00 | 90 | 1010.7 |
| 20260906014504 | 81 | 210 | 1.0 | 2.0 | 0.00 | 0.00 | 0.00 | 90 | 1010.5 |
| 20260906014003 | 81 | 182 | 1.0 | 2.0 | 0.00 | 0.00 | 0.00 | 90 | 1010.6 |
| 20260906012504 | 81 | 194 | 0.0 | 2.0 | 0.00 | 0.00 | 0.00 | 90 | 1010.5 |
| 20260906012004 | 81 | 194 | 0.0 | 3.0 | 0.00 | 0.00 | 0.00 | 89 | 1010.6 |
| 20260906011504 | 81 | 194 | 1.0 | 3.0 | 0.00 | 0.00 | 0.00 | 89 | 1010.5 |
| 20260906011004 | 81 | 190 | 1.0 | 5.0 | 0.00 | 0.00 | 0.00 | 89 | 1010.5 |
| 20260906005503 | 82 | 176 | 2.0 | 5.0 | 0.00 | 0.00 | 0.00 | 89 | 1010.3 |
| 20260906005004 | 82 | 187 | 1.0 | 5.0 | 0.00 | 0.00 | 0.00 | 88 | 1010.1 |
| 20260906004503 | 82 | 184 | 2.0 | 5.0 | 0.00 | 0.00 | 0.00 | 88 | 1010.1 |
| 20260906003504 | 82 | 148 | 1.0 | 5.0 | 0.00 | 0.00 | 0.00 | 87 | 1010.2 |
| 20260906003003 | 82 | 121 | 0.0 | 5.0 | 0.00 | 0.00 | 0.00 | 87 | 1010.1 |
| 20260906002504 | 82 | 147 | 1.0 | 3.0 | 0.00 | 0.00 | 0.00 | 86 | 1010.0 |
| 20260906002004 | 82 | 184 | 0.0 | 3.0 | 0.00 | 0.00 | 0.00 | 86 | 1009.9 |
| 20260906001503 | 83 | 182 | 1.0 | 3.0 | 0.00 | 0.00 | 0.00 | 86 | 1009.8 |
| 20260906001004 | 83 | 189 | 0.0 | 3.0 | 0.00 | 0.00 | 0.00 | 85 | 1009.8 |
| 20260906000504 | 83 | 179 | 2.0 | 3.0 | 0.00 | 0.00 | 0.00 | 85 | 1009.7 |
| 20260906000004 | 83 | 191 | 1.0 | 3.0 | 0.00 | 0.00 | 0.00 | 84 | 1009.6 |
| 20260905235504 | 83 | 141 | 1.0 | 3.0 | 0.00 | 0.00 | 0.00 | 83 | 1009.6 |
| 20260905234004 | 84 | 214 | 2.0 | 6.0 | 0.00 | 0.00 | 0.00 | 81 | 1009.6 |
| 20260905233504 | 85 | 179 | 1.0 | 3.0 | 0.00 | 0.00 | 0.00 | 80 | 1009.5 |
| 20260905233004 | 85 | 201 | 2.0 | 5.0 | 0.00 | 0.00 | 0.00 | 80 | 1009.6 |
| 20260905232504 | 85 | 180 | 0.0 | 5.0 | 0.00 | 0.00 | 0.00 | 79 | 1009.6 |
| 20260905231503 | 86 | 175 | 2.0 | 6.0 | 0.00 | 0.00 | 0.00 | 79 | 1009.7 |
| 20260905231004 | 86 | 187 | 2.0 | 6.0 | 0.00 | 0.00 | 0.00 | 78 | 1009.8 |
| 20260905230504 | 86 | 179 | 2.0 | 6.0 | 0.00 | 0.00 | 0.00 | 78 | 1009.9 |
| 20260905225503 | 86 | 153 | 2.0 | 5.0 | 0.00 | 0.00 | 0.00 | 77 | 1010.0 |
| 20260905225004 | 86 | 189 | 1.0 | 6.0 | 0.00 | 0.00 | 0.00 | 77 | 1010.0 |
| 20260905224504 | 87 | 196 | 3.0 | 7.0 | 0.00 | 0.00 | 0.00 | 76 | 1010.1 |
| 20260905224004 | 87 | 224 | 2.0 | 7.0 | 0.00 | 0.00 | 0.00 | 76 | 1010.2 |
| 20260905223504 | 87 | 189 | 3.0 | 5.0 | 0.00 | 0.00 | 0.00 | 75 | 1010.2 |
| 20260905223003 | 87 | 220 | 2.0 | 3.0 | 0.00 | 0.00 | 0.00 | 76 | 1010.2 |
| 20260905222503 | 87 | 135 | 0.0 | 5.0 | 0.00 | 0.00 | 0.00 | 77 | 1010.3 |
| 20260905222003 | 86 | 203 | 2.0 | 5.0 | 0.00 | 0.00 | 0.00 | 77 | 1010.4 |
| 20260905221503 | 87 | 184 | 1.0 | 7.0 | 0.00 | 0.00 | 0.00 | 77 | 1010.4 |
| 20260905221004 | 86 | 240 | 3.0 | 7.0 | 0.00 | 0.00 | 0.00 | 77 | 1010.4 |
| 20260905220503 | 86 | 211 | 2.0 | 7.0 | 0.00 | 0.00 | 0.00 | 77 | 1010.5 |
| 20260905220004 | 86 | 201 | 3.0 | 7.0 | 0.00 | 0.00 | 0.00 | 76 | 1010.4 |
| 20260905215004 | 86 | 188 | 1.0 | 5.0 | 0.00 | 0.00 | 0.00 | 77 | 1010.5 |
| 20260905214504 | 86 | 148 | 2.0 | 5.0 | 0.00 | 0.00 | 0.00 | 76 | 1010.5 |
| 20260905213503 | 85 | 107 | 1.0 | 6.0 | 0.00 | 0.00 | 0.00 | 79 | 1010.5 |
| 20260905213004 | 84 | 121 | 3.0 | 8.0 | 0.00 | 0.00 | 0.00 | 80 | 1010.5 |
| 20260905212504 | 84 | 163 | 2.0 | 8.0 | 0.00 | 0.00 | 0.00 | 80 | 1010.5 |
| 20260905212004 | 84 | 151 | 3.0 | 8.0 | 0.00 | 0.00 | 0.00 | 82 | 1010.5 |
| 20260905211503 | 84 | 104 | 2.0 | 5.0 | 0.00 | 0.00 | 0.00 | 82 | 1010.5 |
| 20260905211003 | 83 | 169 | 1.0 | 6.0 | 0.00 | 0.00 | 0.00 | 83 | 1010.6 |
| 20260905210504 | 83 | 115 | 2.0 | 6.0 | 0.00 | 0.00 | 0.00 | 83 | 1010.5 |
| 20260905210003 | 83 | 155 | 2.0 | 6.0 | 0.00 | 0.00 | 0.00 | 83 | 1010.7 |
| 20260905205504 | 83 | 101 | 2.0 | 6.0 | 0.00 | 0.00 | 0.00 | 84 | 1010.7 |
| 20260905204504 | 83 | 180 | 3.0 | 9.0 | 0.00 | 0.00 | 0.00 | 84 | 1010.7 |
| 20260905204003 | 83 | 157 | 2.0 | 9.0 | 0.00 | 0.00 | 0.00 | 83 | 1010.7 |
| 20260905203504 | 84 | 168 | 3.0 | 8.0 | 0.00 | 0.00 | 0.00 | 82 | 1010.8 |
| 20260905203004 | 84 | 171 | 2.0 | 7.0 | 0.00 | 0.00 | 0.00 | 81 | 1010.7 |
| 20260905202503 | 84 | 174 | 3.0 | 6.0 | 0.00 | 0.00 | 0.00 | 80 | 1010.7 |
| 20260905202004 | 84 | 195 | 1.0 | 7.0 | 0.00 | 0.00 | 0.00 | 81 | 1010.7 |
| 20260905201004 | 84 | 112 | 2.0 | 6.0 | 0.00 | 0.00 | 0.00 | 81 | 1010.6 |
| 20260905200503 | 84 | 77 | 1.0 | 3.0 | 0.00 | 0.00 | 0.00 | 82 | 1010.7 |
| 20260905200004 | 84 | 75 | 1.0 | 3.0 | 0.00 | 0.00 | 0.00 | 81 | 1010.7 |
| 20260905194005 | 84 | 101 | 1.0 | 3.0 | 0.00 | 0.00 | 0.00 | 79 | 1010.9 |
| 20260905192504 | 85 | 85 | 2.0 | 3.0 | 0.00 | 0.00 | 0.00 | 76 | 1011.2 |
| 20260905192004 | 85 | 0 | 0.0 | 1.0 | 0.00 | 0.00 | 0.00 | 77 | 1010.8 |
| 20260905191503 | 85 | 0 | 0.0 | 1.0 | 0.00 | 0.00 | 0.00 | 78 | 1010.8 |
| 20260905190504 | 85 | 17 | 0.0 | 3.0 | 0.00 | 0.00 | 0.00 | 79 | 1011.3 |
| 20260905190004 | 85 | 61 | 1.0 | 7.0 | 0.00 | 0.00 | 0.00 | 79 | 1011.7 |
| 20260905184504 | 84 | 82 | 1.0 | 10.0 | 0.00 | 0.00 | 0.00 | 80 | 1011.4 |
| 20260905184005 | 84 | 86 | 2.0 | 10.0 | 0.00 | 0.00 | 0.00 | 79 | 1011.2 |
| 20260905183504 | 85 | 351 | 2.0 | 12.0 | 0.00 | 0.00 | 0.00 | 77 | 1011.4 |
| 20260905183004 | 86 | 358 | 4.0 | 13.0 | 0.00 | 0.00 | 0.00 | 74 | 1011.6 |
| 20260905182004 | 91 | 330 | 6.0 | 13.0 | 0.00 | 0.00 | 0.00 | 69 | 1011.3 |
| 20260905181504 | 92 | 217 | 3.0 | 10.0 | 0.00 | 0.00 | 0.00 | 67 | 1011.3 |
| 20260905181004 | 93 | 344 | 5.0 | 10.0 | 0.00 | 0.00 | 0.00 | 64 | 1011.2 |
| 20260905180503 | 93 | 304 | 5.0 | 10.0 | 0.00 | 0.00 | 0.00 | 64 | 1011.1 |
| 20260905180004 | 92 | 302 | 2.0 | 10.0 | 0.00 | 0.00 | 0.00 | 65 | 1011.1 |
| 20260905175503 | 91 | 325 | 2.0 | 10.0 | 0.00 | 0.00 | 0.00 | 68 | 1011.2 |
| 20260905175004 | 91 | 296 | 3.0 | 10.0 | 0.00 | 0.00 | 0.00 | 67 | 1011.3 |
| 20260905174504 | 91 | 282 | 3.0 | 10.0 | 0.00 | 0.00 | 0.00 | 67 | 1011.4 |
| 20260905173504 | 90 | 289 | 3.0 | 8.0 | 0.00 | 0.00 | 0.00 | 70 | 1011.6 |
| 20260905173004 | 90 | 300 | 3.0 | 8.0 | 0.00 | 0.00 | 0.00 | 70 | 1011.6 |
| 20260905172504 | 90 | 314 | 3.0 | 9.0 | 0.00 | 0.00 | 0.00 | 71 | 1011.6 |
| 20260905172003 | 89 | 347 | 2.0 | 9.0 | 0.00 | 0.00 | 0.00 | 74 | 1011.7 |
| 20260905171504 | 88 | 1 | 2.0 | 9.0 | 0.00 | 0.00 | 0.00 | 74 | 1011.9 |
| 20260905171004 | 88 | 292 | 4.0 | 9.0 | 0.00 | 0.00 | 0.00 | 73 | 1012.0 |
| 20260905170504 | 87 | 334 | 3.0 | 10.0 | 0.00 | 0.00 | 0.00 | 73 | 1012.1 |
| 20260905170004 | 87 | 300 | 5.0 | 10.0 | 0.00 | 0.00 | 0.00 | 74 | 1012.1 |
| 20260905165504 | 86 | 320 | 3.0 | 8.0 | 0.00 | 0.00 | 0.00 | 76 | 1012.2 |
| 20260905164504 | 85 | 297 | 3.0 | 13.0 | 0.00 | 0.00 | 0.00 | 73 | 1012.6 |
| 20260905164004 | 87 | 311 | 5.0 | 13.0 | 0.00 | 0.00 | 0.00 | 70 | 1012.7 |
| 20260905163504 | 88 | 313 | 5.0 | 12.0 | 0.00 | 0.00 | 0.00 | 67 | 1012.7 |
| 20260905163004 | 90 | 327 | 5.0 | 12.0 | 0.00 | 0.00 | 0.00 | 68 | 1012.7 |
| 20260905162503 | 90 | 246 | 4.0 | 9.0 | 0.00 | 0.00 | 0.00 | 70 | 1012.6 |
| 20260905162004 | 89 | 237 | 3.0 | 10.0 | 0.00 | 0.00 | 0.00 | 70 | 1012.7 |
| 20260905161504 | 89 | 348 | 5.0 | 10.0 | 0.00 | 0.00 | 0.00 | 71 | 1012.8 |
| 20260905160504 | 89 | 300 | 3.0 | 9.0 | 0.00 | 0.00 | 0.00 | 72 | 1012.9 |
| 20260905160004 | 88 | 317 | 3.0 | 8.0 | 0.00 | 0.00 | 0.00 | 72 | 1013.0 |
| 20260905155504 | 88 | 296 | 4.0 | 8.0 | 0.00 | 0.00 | 0.00 | 73 | 1013.0 |
| 20260905155004 | 88 | 312 | 3.0 | 9.0 | 0.00 | 0.00 | 0.00 | 75 | 1013.1 |
| 20260905154503 | 88 | 310 | 3.0 | 9.0 | 0.00 | 0.00 | 0.00 | 75 | 1013.1 |
| 20260905154004 | 88 | 248 | 3.0 | 8.0 | 0.00 | 0.00 | 0.00 | 75 | 1013.2 |
| 20260905153003 | 88 | 249 | 3.0 | 12.0 | 0.00 | 0.00 | 0.00 | 76 | 1013.2 |
| 20260905152503 | 88 | 238 | 3.0 | 12.0 | 0.00 | 0.00 | 0.00 | 76 | 1013.3 |
| 20260905151504 | 87 | 227 | 4.0 | 8.0 | 0.00 | 0.00 | 0.00 | 78 | 1013.3 |
| 20260905151004 | 87 | 291 | 3.0 | 8.0 | 0.00 | 0.00 | 0.00 | 79 | 1013.2 |
| 20260905150004 | 87 | 252 | 3.0 | 8.0 | 0.00 | 0.00 | 0.00 | 80 | 1013.4 |
| 20260905145504 | 86 | 236 | 4.0 | 7.0 | 0.00 | 0.00 | 0.00 | 81 | 1013.4 |
| 20260905145004 | 86 | 229 | 2.0 | 5.0 | 0.00 | 0.00 | 0.00 | 83 | 1013.5 |
| 20260905144506 | 86 | 288 | 2.0 | 6.0 | 0.00 | 0.00 | 0.00 | 83 | 1013.4 |
| 20260905143504 | 85 | 282 | 3.0 | 8.0 | 0.00 | 0.00 | 0.00 | 84 | 1013.5 |
| 20260905143004 | 84 | 322 | 2.0 | 5.0 | 0.00 | 0.00 | 0.00 | 85 | 1013.6 |
| 20260905142504 | 84 | 237 | 1.0 | 5.0 | 0.00 | 0.00 | 0.00 | 86 | 1013.5 |
| 20260905142003 | 83 | 218 | 3.0 | 6.0 | 0.00 | 0.00 | 0.00 | 86 | 1013.5 |
| 20260905141503 | 83 | 228 | 1.0 | 7.0 | 0.00 | 0.00 | 0.00 | 87 | 1013.5 |
| 20260905141004 | 83 | 216 | 2.0 | 7.0 | 0.00 | 0.00 | 0.00 | 87 | 1013.5 |
| 20260905140503 | 83 | 206 | 2.0 | 7.0 | 0.00 | 0.00 | 0.00 | 87 | 1013.5 |
| 20260905140004 | 83 | 277 | 2.0 | 7.0 | 0.00 | 0.00 | 0.00 | 87 | 1013.5 |
| 20260905135504 | 83 | 296 | 2.0 | 6.0 | 0.00 | 0.00 | 0.00 | 88 | 1013.5 |
| 20260905135004 | 82 | 247 | 2.0 | 5.0 | 0.00 | 0.00 | 0.00 | 89 | 1013.4 |
| 20260905134503 | 82 | 284 | 1.0 | 7.0 | 0.00 | 0.00 | 0.00 | 89 | 1013.4 |
| 20260905134004 | 82 | 224 | 3.0 | 7.0 | 0.00 | 0.00 | 0.00 | 89 | 1013.4 |
| 20260905133504 | 81 | 222 | 2.0 | 9.0 | 0.00 | 0.00 | 0.00 | 90 | 1013.4 |
| 20260905133004 | 81 | 222 | 2.0 | 9.0 | 0.00 | 0.00 | 0.00 | 90 | 1013.5 |
| 20260905132503 | 81 | 306 | 4.0 | 8.0 | 0.00 | 0.00 | 0.00 | 91 | 1013.4 |
| 20260905132004 | 80 | 314 | 3.0 | 6.0 | 0.00 | 0.00 | 0.00 | 91 | 1013.3 |
| 20260905131504 | 80 | 255 | 2.0 | 6.0 | 0.00 | 0.00 | 0.00 | 92 | 1013.3 |
| 20260905131004 | 79 | 294 | 3.0 | 6.0 | 0.00 | 0.00 | 0.00 | 92 | 1013.4 |
| 20260905130504 | 79 | 274 | 3.0 | 6.0 | 0.00 | 0.00 | 0.00 | 93 | 1013.3 |
| 20260905130004 | 79 | 236 | 2.0 | 5.0 | 0.00 | 0.00 | 0.00 | 93 | 1013.4 |
| 20260905125503 | 78 | 245 | 2.0 | 5.0 | 0.00 | 0.00 | 0.00 | 93 | 1013.4 |
| 20260905124504 | 78 | 244 | 1.0 | 3.0 | 0.00 | 0.00 | 0.00 | 93 | 1013.4 |
| 20260905124004 | 77 | 214 | 1.0 | 3.0 | 0.00 | 0.00 | 0.00 | 93 | 1013.5 |
| 20260905123504 | 77 | 253 | 1.0 | 3.0 | 0.00 | 0.00 | 0.00 | 93 | 1013.4 |
| 20260905123004 | 77 | 273 | 2.0 | 3.0 | 0.00 | 0.00 | 0.00 | 93 | 1013.2 |
| 20260905121503 | 76 | 302 | 0.0 | 2.0 | 0.00 | 0.00 | 0.00 | 93 | 1013.1 |
| 20260905121004 | 76 | 298 | 1.0 | 3.0 | 0.00 | 0.00 | 0.00 | 93 | 1013.0 |
| 20260905120504 | 76 | 242 | 1.0 | 3.0 | 0.00 | 0.00 | 0.00 | 93 | 1012.9 |
| 20260905120004 | 76 | 236 | 0.0 | 3.0 | 0.00 | 0.00 | 0.00 | 93 | 1012.8 |